Regional Weather Roundup
Issued by NWS

Home | Current Version | Previous Version | Text Only | Print | Product List | Glossary Off
Versions: 1 2 3 4 5 6 7 8 9 10 11 12 13 14 15 16 17 18 19 20 21 22 23 24 25 26 27 28 29 30 31 32 33 34 35 36 37 38 39 40 41 42 43 44 45 46 47 48 49 50

000
ASUS43 KOAX 222002
RWRNE

WEATHER ROUNDUP FOR NEBRASKA
NATIONAL WEATHER SERVICE OMAHA NE
200 PM CST WED NOV 22 2017

NOTES: SATELLITE DATA IS BEING USED TO AUGMENT CLOUD COVER ABOVE
       12000 FEET.
       "FAIR" INDICATES FEW OR NO CLOUDS BELOW 12,000 FEET WITH NO
       SIGNIFICANT WEATHER AND/OR OBSTRUCTIONS TO VISIBILITY.


NEZ001>004-019>022-054>056-222100-
NEBRASKA PANHANDLE

CITY           SKY/WX    TMP DP  RH WIND       PRES   REMARKS
SCOTTSBLUFF    CLOUDY    69  37  30 NW17      30.12F
ALLIANCE       SUNNY     69  36  29 NW15      30.08F
CHADRON        MOSUNNY   66  39  37 W12       30.06F
GORDON         FAIR      67  36  31 W15       30.06F
KIMBALL        SUNNY     67  36  30 NW22G31   30.16F
SIDNEY         SUNNY     69  37  30 NW21      30.14F
$$

NEZ057>060-069>072-079>082-222100-
SOUTHWEST NEBRASKA

CITY           SKY/WX    TMP DP  RH WIND       PRES   REMARKS
NORTH PLATTE   SUNNY     65  38  36 NW8       30.07F
IMPERIAL       SUNNY     70  38  31 NW12      30.09F
LEXINGTON      SUNNY     56  31  38 SW10      30.09F
MCCOOK         SUNNY     64  37  36 SW6       30.09F
OGALLALA       SUNNY     69  38  32 NW17      30.08F
$$

NEZ005>010-023>029-035>040-094-222100-
NORTH CENTRAL NEBRASKA

CITY           SKY/WX    TMP DP  RH WIND       PRES   REMARKS
VALENTINE      SUNNY     71  35  26 W17       29.99F
AINSWORTH      SUNNY     67  36  31 W14       29.98F
BROKEN BOW     SUNNY     57  31  37 SW12      30.05F
O`NEILL        SUNNY     49  28  43 S14       30.01F
ORD            SUNNY     51  26  37 S14       30.05F
THEDFORD       SUNNY     68  37  31 W14       30.03F
$$

NEZ041-046>049-061>064-073>077-083>087-222100-
SOUTH CENTRAL NEBRASKA

CITY           SKY/WX    TMP DP  RH WIND       PRES   REMARKS
GRAND ISLAND   CLOUDY    47  22  37 SW20G26   30.11F
AURORA         CLOUDY    47  19  32 SW17      30.13F
HASTINGS       SUNNY     46  18  32 SW16G25   30.13F
HEBRON         SUNNY     45  16  31 S15       30.18F
HOLDREGE       SUNNY     54  30  39 SW16      30.10F
KEARNEY        SUNNY     51  25  36 S17       30.10F
YORK           SUNNY     43  18  36 SW20G25   30.15F
$$

NEZ011>018-030>034-042>045-222100-
NORTHEAST NEBRASKA

CITY           SKY/WX    TMP DP  RH WIND       PRES   REMARKS
NORFOLK        CLOUDY    42  18  37 SW21G28   30.07F
ALBION         SUNNY     46  21  37 S16G25    30.08F
BLAIR          CLOUDY    37  16  43 S18       30.17F WCI  26
COLUMBUS       SUNNY     42  17  36 S22G28    30.13F
FREMONT        CLOUDY    38  15  40 S20       30.16F WCI  27
TEKAMAH        CLOUDY    37  15  40 S18G26    30.17F WCI  27
WAYNE          MOSUNNY   39  12  33 S22       30.10F WCI  29
$$

NEZ050>053-065>068-078-088>093-222100-
SOUTHEAST NEBRASKA

CITY           SKY/WX    TMP DP  RH WIND       PRES   REMARKS
LINCOLN        MOSUNNY   40  15  36 S16       30.18F WCI  31
OMAHA EPPLEY   CLOUDY    37  14  38 S16       30.20F WCI  28
BEATRICE       SUNNY     40  17  38 S17       30.20F WCI  32
FALLS CITY     SUNNY     40  15  36 S9        30.26F WCI  34
NEBRASKA CITY  CLOUDY    39  17  40 S14G21    30.22F WCI  31
PLATTSMOUTH    CLOUDY    38  16  40 S16G22    30.21F WCI  29
$$

NEZ044-045-051>053-067-222100-
OMAHA AREA

CITY           SKY/WX    TMP DP  RH WIND       PRES   REMARKS
OMAHA EPPLEY   CLOUDY    37  14  38 S16       30.20F WCI  28
BLAIR          CLOUDY    37  16  43 S18       30.17F WCI  26
FREMONT        CLOUDY    38  15  40 S20       30.16F WCI  27
MILLARD        CLOUDY    39  16  38 S10G17    30.20F WCI  32
OFFUTT AFB     CLOUDY    38  13  35 S13       30.20F WCI  30
PLATTSMOUTH    CLOUDY    38  16  40 S16G22    30.21F WCI  29
WAHOO          FAIR      39  13  35 S20       30.17F WCI  30
$$




USA.gov is the U.S. government's official web portal to all federal, state and local government web resources and services.